• En España
  • Lista de países
  • Para 7 días
  • Temperatura del agua
  • Mapa Satelital
  • El tiempo en el mapa
  • Informadores
  • user-avatar
    Iniciar sesión

    Tiempo cada hora Igls

    Hoy, 15 Diciembre, Viernes

    Tiempo Temperatura Precipitaciones Viento Presión Humedad
    00:00 0°C° 0,9 mm 3 mps 670 mmHg 93%
    01:00 -1°C° 0 mm 2 mps 669 mmHg 95%
    02:00 -1°C° 1 mm 2 mps 669 mmHg 95%
    03:00 -1°C° 1 mm 2 mps 669 mmHg 95%
    04:00 -1°C° 1 mm 2 mps 669 mmHg 95%
    05:00 +1°C° 1 mm 2 mps 669 mmHg 95%
    06:00 +1°C° 1 mm 2 mps 670 mmHg 96%
    07:00 +1°C° 0 mm 1 mps 670 mmHg 96%
    08:00 +1°C° 0,3 mm 1 mps 670 mmHg 95%
    09:00 +2°C° 0,3 mm 1 mps 670 mmHg 94%
    10:00 +2°C° 0,3 mm 1 mps 670 mmHg 93%
    11:00 +2°C° 0,2 mm 1 mps 670 mmHg 92%
    12:00 +3°C° 0,2 mm 1 mps 670 mmHg 92%
    13:00 +3°C° 0 mm 1 mps 670 mmHg 90%
    14:00 +3°C° 0,2 mm 1 mps 670 mmHg 91%
    15:00 +2°C° 0,2 mm 1 mps 670 mmHg 92%
    16:00 +1°C° 0,2 mm 1 mps 671 mmHg 93%
    17:00 0°C° 0,1 mm 1 mps 671 mmHg 93%
    18:00 -3°C° 0,1 mm 2 mps 671 mmHg 93%
    19:00 -4°C° 0,1 mm 2 mps 671 mmHg 93%
    20:00 -4°C° 0 mm 2 mps 671 mmHg 93%
    21:00 -5°C° 0 mm 2 mps 671 mmHg 93%
    22:00 -6°C° 0 mm 2 mps 671 mmHg 92%
    23:00 -6°C° 0 mm 2 mps 672 mmHg 92%

    Mañana, 16 Diciembre, Sábado

    Tiempo Temperatura Precipitaciones Viento Presión Humedad
    00:00 -6°C° 0 mm 2 mps 672 mmHg 91%
    01:00 -7°C° 0 mm 2 mps 672 mmHg 90%
    02:00 -7°C° 0 mm 2 mps 672 mmHg 89%
    03:00 -7°C° 0 mm 2 mps 672 mmHg 89%
    04:00 -7°C° 0 mm 2 mps 672 mmHg 88%
    05:00 -7°C° 0,1 mm 2 mps 673 mmHg 88%
    06:00 -7°C° 0,1 mm 2 mps 673 mmHg 88%
    07:00 -6°C° 0,1 mm 2 mps 673 mmHg 88%
    08:00 -5°C° 0,1 mm 2 mps 674 mmHg 88%
    09:00 -4°C° 0,1 mm 2 mps 675 mmHg 88%
    10:00 -3°C° 0,1 mm 2 mps 676 mmHg 89%
    11:00 -3°C° 0,1 mm 2 mps 676 mmHg 88%
    12:00 -2°C° 0,1 mm 2 mps 676 mmHg 87%
    13:00 -1°C° 0,1 mm 2 mps 677 mmHg 87%
    14:00 -2°C° 0,2 mm 2 mps 677 mmHg 89%
    15:00 -2°C° 0,2 mm 2 mps 677 mmHg 91%
    16:00 -3°C° 0,2 mm 2 mps 678 mmHg 94%
    17:00 -3°C° 0,4 mm 2 mps 679 mmHg 94%
    18:00 -3°C° 0,4 mm 2 mps 679 mmHg 95%
    19:00 -4°C° 0,4 mm 2 mps 680 mmHg 95%
    20:00 -4°C° 0,5 mm 2 mps 680 mmHg 95%
    21:00 -4°C° 0,5 mm 2 mps 681 mmHg 95%
    22:00 -4°C° 0,5 mm 2 mps 681 mmHg 95%
    23:00 -4°C° 0,4 mm 2 mps 682 mmHg 95%

    Pasado mañana, 17 Diciembre, Domingo

    Tiempo Temperatura Precipitaciones Viento Presión Humedad
    00:00 -4°C° 0,4 mm 2 mps 682 mmHg 95%
    01:00 -4°C° 0,4 mm 2 mps 682 mmHg 95%
    02:00 -5°C° 0,4 mm 2 mps 682 mmHg 95%
    03:00 -5°C° 0,4 mm 2 mps 682 mmHg 95%
    04:00 -5°C° 0,4 mm 2 mps 683 mmHg 95%
    05:00 -5°C° 0,5 mm 2 mps 683 mmHg 95%
    06:00 -5°C° 0,5 mm 2 mps 683 mmHg 95%
    07:00 -5°C° 0,5 mm 2 mps 684 mmHg 95%
    08:00 -5°C° 0,6 mm 2 mps 684 mmHg 95%
    09:00 -4°C° 0,6 mm 2 mps 685 mmHg 94%
    10:00 -4°C° 0,6 mm 2 mps 685 mmHg 94%
    11:00 -4°C° 0,6 mm 2 mps 686 mmHg 93%
    12:00 -3°C° 0,6 mm 2 mps 686 mmHg 91%
    13:00 -3°C° 0,6 mm 2 mps 686 mmHg 90%
    14:00 -4°C° 0,4 mm 2 mps 686 mmHg 91%
    15:00 -4°C° 0,4 mm 2 mps 686 mmHg 92%
    16:00 -4°C° 0,4 mm 2 mps 687 mmHg 94%
    17:00 -5°C° 0,4 mm 2 mps 687 mmHg 94%
    18:00 -5°C° 0,4 mm 2 mps 688 mmHg 94%
    19:00 -6°C° 0,4 mm 2 mps 689 mmHg 94%
    20:00 -6°C° 0,2 mm 2 mps 689 mmHg 94%
    21:00 -6°C° 0,2 mm 2 mps 690 mmHg 94%
    22:00 -7°C° 0,2 mm 2 mps 690 mmHg 94%
    23:00 -8°C° 0,1 mm 2 mps 690 mmHg 93%

    18 Diciembre, Lunes

    Tiempo Temperatura Precipitaciones Viento Presión Humedad
    00:00 -8°C° 0,1 mm 2 mps 690 mmHg 92%
    01:00 -9°C° 0,1 mm 2 mps 690 mmHg 92%
    02:00 -9°C° 0 mm 2 mps 690 mmHg 90%
    03:00 -10°C° 0 mm 2 mps 690 mmHg 89%
    04:00 -10°C° 0 mm 2 mps 690 mmHg 87%
    05:00 -9°C° 0 mm 2 mps 689 mmHg 86%
    06:00 -7°C° 0 mm 2 mps 689 mmHg 84%
    07:00 -6°C° 0 mm 2 mps 689 mmHg 83%
    08:00 -5°C° 0,5 mm 2 mps 689 mmHg 86%
    09:00 -4°C° 0,5 mm 2 mps 688 mmHg 89%
    10:00 -3°C° 0,5 mm 2 mps 688 mmHg 92%
    11:00 -2°C° 1,6 mm 2 mps 687 mmHg 93%
    12:00 -1°C° 1,6 mm 2 mps 687 mmHg 94%
    13:00 +1°C° 1,6 mm 2 mps 686 mmHg 95%
    14:00 +1°C° 1,2 mm 2 mps 686 mmHg 96%
    15:00 +1°C° 1,2 mm 2 mps 686 mmHg 96%
    16:00 +1°C° 1,2 mm 2 mps 686 mmHg 97%
    17:00 -1°C° 0,8 mm 2 mps 687 mmHg 97%
    18:00 -1°C° 0,8 mm 2 mps 687 mmHg 97%
    19:00 -2°C° 0,8 mm 2 mps 688 mmHg 97%
    20:00 -2°C° 0,5 mm 2 mps 688 mmHg 96%
    21:00 -2°C° 0,5 mm 2 mps 689 mmHg 96%
    22:00 -3°C° 0,5 mm 2 mps 690 mmHg 96%
    23:00 -3°C° 0,2 mm 2 mps 690 mmHg 96%

    19 Diciembre, Martes

    Tiempo Temperatura Precipitaciones Viento Presión Humedad
    00:00 -4°C° 0,2 mm 2 mps 691 mmHg 95%
    01:00 -5°C° 0,2 mm 2 mps 691 mmHg 95%
    02:00 -5°C° 0,1 mm 2 mps 692 mmHg 95%
    03:00 -6°C° 0,1 mm 2 mps 692 mmHg 94%
    04:00 -4°C° 0,1 mm 1 mps 692 mmHg 94%
    05:00 -6°C° 0 mm 1 mps 692 mmHg 93%
    06:00 -6°C° 0 mm 1 mps 693 mmHg 92%
    07:00 -6°C° 0 mm 1 mps 693 mmHg 91%
    08:00 -4°C° 0 mm 1 mps 693 mmHg 90%
    09:00 -3°C° 0 mm 1 mps 694 mmHg 89%
    10:00 -2°C° 0 mm 1 mps 695 mmHg 88%
    11:00 -1°C° 0 mm 1 mps 695 mmHg 86%
    12:00 +1°C° 0 mm 1 mps 694 mmHg 85%
    13:00 +2°C° 0 mm 1 mps 694 mmHg 83%
    14:00 +1°C° 0 mm 1 mps 694 mmHg 86%
    15:00 -1°C° 0 mm 1 mps 694 mmHg 89%
    16:00 -2°C° 0 mm 1 mps 694 mmHg 92%
    17:00 -3°C° 0 mm 1 mps 694 mmHg 89%
    18:00 -4°C° 0 mm 1 mps 694 mmHg 86%
    19:00 -6°C° 0 mm 1 mps 695 mmHg 83%
    20:00 -6°C° 0 mm 1 mps 695 mmHg 81%
    21:00 -7°C° 0 mm 2 mps 695 mmHg 79%
    22:00 -7°C° 0 mm 2 mps 696 mmHg 77%
    23:00 -7°C° 0 mm 2 mps 696 mmHg 77%

    20 Diciembre, Miércoles

    Tiempo Temperatura Precipitaciones Viento Presión Humedad
    00:00 -6°C° 0 mm 2 mps 696 mmHg 76%
    01:00 -6°C° 0 mm 2 mps 696 mmHg 76%
    02:00 -6°C° 0 mm 2 mps 696 mmHg 75%
    03:00 -6°C° 0 mm 2 mps 696 mmHg 74%
    04:00 -5°C° 0 mm 2 mps 696 mmHg 74%
    05:00 -4°C° 0 mm 2 mps 696 mmHg 75%
    06:00 -3°C° 0 mm 2 mps 696 mmHg 76%
    07:00 -2°C° 0 mm 2 mps 697 mmHg 78%
    08:00 -1°C° 0,1 mm 2 mps 697 mmHg 81%
    09:00 +1°C° 0,1 mm 2 mps 697 mmHg 84%
    10:00 +2°C° 0,1 mm 2 mps 698 mmHg 87%
    11:00 +2°C° 0,4 mm 2 mps 697 mmHg 90%
    12:00 +3°C° 0,4 mm 2 mps 697 mmHg 92%
    13:00 +4°C° 0,4 mm 2 mps 697 mmHg 95%
    14:00 +4°C° 0,5 mm 2 mps 697 mmHg 95%
    15:00 +4°C° 0,5 mm 2 mps 697 mmHg 95%
    16:00 +3°C° 0,5 mm 2 mps 697 mmHg 95%
    17:00 +3°C° 0,4 mm 2 mps 697 mmHg 95%
    18:00 +3°C° 0,4 mm 2 mps 697 mmHg 95%
    19:00 +3°C° 0,4 mm 2 mps 698 mmHg 95%
    20:00 +3°C° 0,2 mm 2 mps 698 mmHg 95%
    21:00 +3°C° 0,2 mm 2 mps 698 mmHg 95%
    22:00 +4°C° 0,2 mm 2 mps 698 mmHg 95%
    23:00 +3°C° 0,1 mm 2 mps 698 mmHg 95%
    Mostrar más